Location: Harwich
(41.6860°N, 70.0760°W)
Time: 02:52:47
(UTC-04:00)

ISS - Visible Passes

Search period start: 04 October 2022 00:00
Search period end: 14 October 2022 00:00
Orbit: 415 x 419 km, 51.6° (Epoch: 04 October)

Date Brightness Start Highest point End Pass type
(mag) Time Alt. Az. Time Alt. Az. Time Alt. Az.
04 Oct -1.6 19:59:20 10° W 20:02:01 22° SW 20:03:17 18° SSW visible
05 Oct -2.4 19:10:51 10° WNW 19:14:01 37° SW 19:17:08 10° SSE visible
07 Oct -0.8 19:12:19 10° W 19:14:06 14° SW 19:15:52 10° SSW visible
